Date_and_time,latitude,longitude,wind_speed,RelWindDirFrom,WindDirFrom,air_pressure,air_temperature,relative_humidity,Temp,platform_speed_wrt_ground,air_pressure_at_mean_sea_level,platform_orientation
2019-02-09 00:00,50.630445,-96.9807683333333,4.0,5.8,254,1009.29,-20.3,62,0.31,0.0,1039.91,194.5
2019-02-09 00:10,50.630445,-96.98077,3.9,5.4,256,1009.43,-20.3,63,0.31,0.0,1040.06,194.5
2019-02-09 00:20,50.6304466666667,-96.9807716666667,4.0,5.0,240,1009.64,-20.7,64,0.31,0.0,1040.31,194.5
2019-02-09 00:30,50.6304466666667,-96.9807666666667,4.5,5.9,240,1009.83,-21.0,64,0.31,0.0,1040.54,194.5
2019-02-09 00:40,50.6304183333333,-96.98077,4.1,5.5,241,1010.00,-21.3,65,0.31,0.0,1040.74,194.5
2019-02-09 00:50,50.6304566666667,-96.98077,4.9,6.7,244,1010.06,-21.6,66,0.31,0.0,1040.83,194.5
2019-02-09 01:00,50.63044,-96.9807783333333,4.4,5.8,247,1010.10,-21.7,66,0.31,0.0,1040.89,207.4
2019-02-09 01:10,50.6304366666667,-96.9807666666667,4.0,5.2,246,1010.21,-21.7,66,0.32,0.0,1041.02,207.4
2019-02-09 01:20,50.6304383333333,-96.9807666666667,4.5,5.5,240,1010.38,-22.0,67,0.32,0.0,1041.22,207.4
2019-02-09 01:30,50.63044,-96.9807683333333,4.5,5.6,232,1010.55,-22.2,68,0.32,0.0,1041.45,207.4
2019-02-09 01:40,50.6304416666667,-96.98077,5.2,7.2,240,1010.65,-22.4,69,0.32,0.0,1041.59,207.4
2019-02-09 01:50,50.6304433333333,-96.9807716666667,5.5,7.7,240,1010.74,-22.4,68,0.32,0.0,1041.70,207.4
2019-02-09 02:00,50.630445,-96.9807716666667,5.1,6.6,241,1010.83,-22.7,69,0.32,0.0,1041.81,192.6
2019-02-09 02:10,50.6304466666667,-96.9807716666667,5.8,7.8,242,1010.95,-22.9,69,0.32,0.0,1041.97,192.6
2019-02-09 02:20,50.6304466666667,-96.98077,5.9,9.1,248,1010.99,-23.0,70,0.32,0.0,1042.04,192.6
2019-02-09 02:30,50.6304466666667,-96.98077,6.0,9.1,254,1010.99,-22.8,70,0.32,0.0,1042.05,192.6
2019-02-09 02:40,50.6304466666667,-96.98077,6.4,8.5,251,1011.08,-23.0,70,0.32,0.0,1042.16,192.6
2019-02-09 02:50,50.6304483333333,-96.98077,6.8,8.6,256,1011.09,-23.1,71,0.32,0.0,1042.19,192.6
2019-02-09 03:00,50.6304483333333,-96.980775,6.5,8.5,258,1011.14,-23.1,71,0.32,0.0,1042.25,347.4
2019-02-09 03:10,50.63043,-96.98073,6.5,9.3,256,1011.36,-23.2,71,0.32,0.0,1042.50,347.4
2019-02-09 03:20,50.6304566666667,-96.98077,6.7,9.6,258,1011.52,-23.3,71,0.32,0.0,1042.68,347.4
2019-02-09 03:30,50.6304433333333,-96.98076,5.9,7.5,264,1011.61,-23.3,71,0.32,0.0,1042.79,347.4
2019-02-09 03:40,50.6304483333333,-96.9807633333333,6.3,8.8,260,1011.71,-23.4,71,0.32,0.0,1042.90,347.4
2019-02-09 03:50,50.6304483333333,-96.9807633333333,5.6,7.5,264,1011.72,-23.6,72,0.32,0.0,1042.93,347.4
2019-02-09 04:00,50.6304483333333,-96.980765,6.0,7.8,256,1011.85,-23.7,72,0.32,0.0,1043.09,68.5
2019-02-09 04:10,50.63045,-96.9807666666667,5.0,7.4,258,1011.98,-23.8,72,0.32,0.0,1043.23,68.5
2019-02-09 04:20,50.63045,-96.980765,5.0,6.5,250,1012.17,-24.0,72,0.32,0.0,1043.43,68.5
2019-02-09 04:30,50.6304516666667,-96.9807666666667,4.6,7.1,251,1012.30,-24.2,73,0.32,0.0,1043.59,68.5
2019-02-09 04:40,50.6304533333333,-96.98077,3.7,6.3,265,1012.34,-24.2,73,0.32,0.0,1043.64,68.5
2019-02-09 04:50,50.63046,-96.9807833333333,4.0,7.1,257,1012.46,-24.3,74,0.32,0.0,1043.77,68.5
2019-02-09 05:00,50.6304516666667,-96.9807666666667,3.2,4.4,268,1012.46,-24.4,74,0.32,0.0,1043.78,360.0
2019-02-09 05:10,50.6304516666667,-96.980765,4.2,6.4,245,1012.69,-24.5,74,0.32,0.0,1044.03,360.0
2019-02-09 05:20,50.6304516666667,-96.9807633333333,4.8,6.7,241,1012.80,-24.8,74,0.32,0.0,1044.17,360.0
2019-02-09 05:30,50.63045,-96.9807633333333,3.6,4.5,225,1012.79,-24.9,75,0.32,0.0,1044.17,360.0
2019-02-09 05:40,50.63042,-96.980775,4.1,5.6,237,1012.85,-25.1,75,0.32,0.0,1044.25,360.0
2019-02-09 05:50,50.6304533333333,-96.9807733333333,4.9,6.6,249,1012.87,-25.2,75,0.32,0.0,1044.28,360.0
2019-02-09 06:00,50.6304516666667,-96.9807766666667,4.7,7.0,257,1012.87,-25.3,75,0.32,0.0,1044.30,360.0
2019-02-09 06:10,50.6304516666667,-96.98078,4.4,6.5,254,1013.01,-25.4,75,0.32,0.0,1044.46,360.0
2019-02-09 06:20,50.630455,-96.9807783333333,4.1,5.5,251,1013.19,-25.7,75,0.32,0.0,1044.68,360.0
2019-02-09 06:30,50.6304566666667,-96.9807766666667,4.0,5.5,266,1013.31,-25.7,75,0.32,0.0,1044.81,360.0
2019-02-09 06:40,50.6304416666667,-96.980775,4.3,6.5,262,1013.41,-25.8,75,0.32,0.0,1044.91,360.0
2019-02-09 06:50,50.6304533333333,-96.98078,4.9,6.3,259,1013.44,-25.7,75,0.31,0.0,1044.95,360.0
2019-02-09 07:00,50.6304516666667,-96.9807766666667,4.9,7.3,257,1013.56,-25.7,75,0.31,0.0,1045.09,347.4
2019-02-09 07:10,50.6304566666667,-96.9807783333333,5.2,6.9,252,1013.72,-25.9,75,0.31,0.0,1045.28,347.4
2019-02-09 07:20,50.630455,-96.9807666666667,5.7,7.9,259,1013.80,-25.9,75,0.31,0.0,1045.38,347.4
2019-02-09 07:30,50.6304583333333,-96.9807816666667,6.4,7.9,264,1013.82,-25.9,75,0.31,0.0,1045.40,347.4
2019-02-09 07:40,50.6304316666667,-96.980745,6.3,7.7,265,1013.84,-25.9,75,0.31,0.0,1045.44,347.4
2019-02-09 07:50,50.63044,-96.98075,6.5,9.6,265,1013.89,-26.1,75,0.31,0.0,1045.49,347.4
2019-02-09 08:00,50.6304433333333,-96.980755,4.7,6.9,263,1014.02,-26.1,74,0.31,0.0,1045.64,360.0
2019-02-09 08:10,50.6304466666667,-96.98076,2.6,5.4,258,1014.13,-26.3,74,0.31,0.0,1045.79,360.0
2019-02-09 08:20,50.6304466666667,-96.98076,2.1,4.3,243,1014.29,-26.8,74,0.31,0.0,1045.98,360.0
2019-02-09 08:30,50.63046,-96.980775,4.2,5.7,226,1014.48,-27.3,74,0.31,0.0,1046.21,360.0
2019-02-09 08:40,50.63043,-96.9807633333333,4.1,5.7,220,1014.62,-27.6,74,0.31,0.0,1046.38,360.0
2019-02-09 08:50,50.6304516666667,-96.9807666666667,2.6,4.9,235,1014.62,-27.6,74,0.31,0.0,1046.38,360.0
2019-02-09 09:00,50.630455,-96.980765,2.5,3.9,225,1014.66,-27.7,74,0.31,0.0,1046.44,90.0
2019-02-09 09:10,50.6304566666667,-96.9807633333333,2.8,3.9,230,1014.69,-28.0,73,0.31,0.0,1046.49,90.0
2019-02-09 09:20,50.630455,-96.9807633333333,2.3,3.2,219,1014.74,-28.2,73,0.31,0.0,1046.55,90.0
2019-02-09 09:30,50.6304533333333,-96.9807566666667,2.6,3.7,227,1014.83,-28.3,73,0.31,0.0,1046.66,90.0
2019-02-09 09:40,50.630455,-96.9807716666667,2.3,3.7,235,1014.84,-28.5,72,0.31,0.0,1046.68,90.0
2019-02-09 09:50,50.63046,-96.9807683333333,3.1,4.3,236,1014.77,-28.6,72,0.31,0.0,1046.63,90.0
2019-02-09 10:00,50.6304583333333,-96.98077,2.7,3.5,227,1014.75,-28.7,72,0.31,0.0,1046.63,48.3
2019-02-09 10:10,50.6304333333333,-96.9807433333333,3.1,4.0,228,1014.81,-28.7,72,0.31,0.0,1046.72,48.3
2019-02-09 10:20,50.630455,-96.9807616666667,3.7,5.3,229,1014.77,-28.8,72,0.30,0.0,1046.71,48.3
2019-02-09 10:30,50.63046,-96.980765,2.9,4.6,238,1014.77,-28.8,71,0.30,0.0,1046.74,48.3
2019-02-09 10:40,50.6304583333333,-96.9807683333333,3.1,4.5,248,1014.66,-28.9,71,0.30,0.0,1046.62,48.3
2019-02-09 10:50,50.63046,-96.98077,2.4,4.8,252,1014.61,-28.8,71,0.30,0.0,1046.58,48.3
2019-02-09 11:00,50.63046,-96.9807716666667,2.9,4.1,227,1014.69,-29.1,71,0.30,0.0,1046.69,356.8
2019-02-09 11:10,50.63046,-96.9807716666667,2.9,3.7,234,1014.67,-29.2,71,0.30,0.0,1046.70,356.8
2019-02-09 11:20,50.6304583333333,-96.98079,2.1,3.4,217,1014.76,-29.4,71,0.30,0.0,1046.81,356.8
2019-02-09 11:30,50.6304583333333,-96.9807566666667,1.8,2.4,225,1014.82,-29.5,71,0.30,0.0,1046.89,356.8
2019-02-09 11:40,50.63047,-96.9807566666667,1.9,2.6,220,1014.86,-29.6,71,0.30,0.0,1046.95,356.8
2019-02-09 11:50,50.6304566666667,-96.9807666666667,2.3,2.8,221,1014.85,-29.8,71,0.30,0.0,1046.96,356.8
2019-02-09 12:00,50.6304533333333,-96.9807716666667,2.2,2.6,205,1014.86,-30.0,71,0.30,0.0,1046.98,270.0
2019-02-09 12:10,50.63045,-96.9807716666667,3.2,4.0,192,1014.87,-30.2,70,0.30,0.0,1047.01,270.0
2019-02-09 12:20,50.6304483333333,-96.9807716666667,2.7,3.4,201,1014.87,-30.5,70,0.30,0.0,1047.04,270.0
2019-02-09 12:30,50.63045,-96.98077,2.1,3.0,204,1014.79,-30.3,70,0.30,0.0,1046.94,270.0
2019-02-09 12:40,50.63045,-96.98077,3.3,4.3,192,1014.82,-30.4,70,0.30,0.0,1046.97,270.0
2019-02-09 12:50,50.63045,-96.98077,3.4,4.1,206,1014.81,-30.5,70,0.30,0.0,1046.99,270.0
2019-02-09 13:00,50.6304516666667,-96.9807683333333,3.2,4.4,216,1014.84,-30.4,69,0.30,0.0,1047.02,142.0
2019-02-09 13:10,50.6304516666667,-96.98077,2.4,3.4,197,1014.85,-30.4,69,0.30,0.0,1047.04,142.0
2019-02-09 13:20,50.6304533333333,-96.980765,2.1,2.9,189,1014.84,-30.5,69,0.30,0.0,1047.05,142.0
2019-02-09 13:30,50.6304516666667,-96.9807683333333,1.4,2.1,204,1014.81,-30.5,69,0.30,0.0,1047.03,142.0
2019-02-09 13:40,50.6304533333333,-96.9807683333333,1.2,1.7,177,1014.84,-30.6,69,0.30,0.0,1047.07,142.0
2019-02-09 13:50,50.630455,-96.9807683333333,1.7,2.4,179,1014.86,-30.6,69,0.30,0.0,1047.11,142.0
2019-02-09 14:00,50.630455,-96.9807666666667,2.0,2.6,179,1014.90,-30.8,69,0.30,0.0,1047.17,167.4
2019-02-09 14:10,50.6304566666667,-96.9807683333333,3.4,4.3,178,1014.96,-30.8,69,0.30,0.0,1047.26,167.4
2019-02-09 14:20,50.6304566666667,-96.9807666666667,4.4,5.6,171,1015.10,-31.0,69,0.30,0.0,1047.40,167.4
2019-02-09 14:30,50.6304566666667,-96.9807633333333,4.4,5.1,179,1015.20,-31.1,68,0.30,0.0,1047.53,167.4
2019-02-09 14:40,50.630455,-96.9807633333333,3.3,4.1,188,1015.23,-31.1,68,0.30,0.0,1047.56,167.4
2019-02-09 14:50,50.630455,-96.9807633333333,2.7,3.9,186,1015.25,-31.0,68,0.30,0.0,1047.57,167.4
2019-02-09 15:00,50.630455,-96.9807616666667,3.9,4.9,173,1015.30,-30.9,67,0.30,0.0,1047.61,90.0
2019-02-09 15:10,50.630455,-96.980745,3.7,5.0,184,1015.30,-30.6,67,0.29,0.0,1047.60,90.0
2019-02-09 15:20,50.6304516666667,-96.9807533333333,3.7,4.2,185,1015.42,-30.1,67,0.29,0.0,1047.69,90.0
2019-02-09 15:30,50.6304533333333,-96.98076,3.4,4.0,187,1015.59,-29.7,67,0.29,0.0,1047.84,90.0
2019-02-09 15:40,50.6304633333333,-96.980765,3.9,4.9,178,1015.73,-29.4,67,0.29,0.0,1047.97,90.0
2019-02-09 15:50,50.6304633333333,-96.980765,4.6,5.4,177,1015.73,-29.2,66,0.29,0.0,1047.96,90.0
2019-02-09 16:00,50.6304533333333,-96.98076,4.1,5.1,179,1015.83,-28.7,66,0.29,0.0,1048.04,90.0
2019-02-09 16:10,50.6304533333333,-96.98076,4.0,4.6,178,1015.84,-28.3,66,0.29,0.0,1048.04,90.0
2019-02-09 16:20,50.630455,-96.980765,3.3,4.2,180,1015.90,-27.9,66,0.29,0.0,1048.08,90.0
2019-02-09 16:30,50.630455,-96.980765,2.6,3.6,194,1015.99,-27.1,66,0.29,0.0,1048.11,90.0
2019-02-09 16:40,50.630455,-96.980765,2.3,3.0,185,1016.02,-26.5,65,0.29,0.0,1048.09,90.0
2019-02-09 16:50,50.630455,-96.9807666666667,3.3,5.2,179,1016.01,-26.1,65,0.29,0.0,1048.06,90.0
2019-02-09 17:00,50.6304466666667,-96.98076,3.7,4.7,193,1015.96,-25.5,65,0.29,0.0,1047.94,131.7
2019-02-09 17:10,50.6304516666667,-96.9807666666667,4.1,6.1,196,1015.91,-25.0,65,0.29,0.0,1047.83,131.7
2019-02-09 17:20,50.6304533333333,-96.98077,4.4,5.4,197,1015.88,-24.7,64,0.29,0.0,1047.75,131.7
2019-02-09 17:30,50.6304533333333,-96.9807683333333,4.3,5.1,178,1015.89,-24.6,63,0.29,0.0,1047.73,131.7
2019-02-09 17:40,50.630455,-96.98076,4.2,5.1,167,1015.88,-24.5,63,0.29,0.0,1047.70,131.7
2019-02-09 17:50,50.63045,-96.9807733333333,4.3,5.2,178,1015.76,-24.0,63,0.29,0.0,1047.51,131.7
2019-02-09 18:00,50.63045,-96.9807616666667,4.1,6.1,205,1015.60,-22.9,61,0.29,0.0,1047.25,90.0
2019-02-09 18:10,50.63045,-96.980765,4.5,6.2,220,1015.53,-22.1,60,0.29,0.0,1047.10,90.0
2019-02-09 18:20,50.63045,-96.980765,4.3,6.0,207,1015.45,-21.7,59,0.29,0.0,1046.95,90.0
2019-02-09 18:30,50.63045,-96.9807666666667,4.4,5.8,157,1015.26,-22.1,62,0.29,0.0,1046.73,90.0
2019-02-09 18:40,50.6304516666667,-96.9807666666667,4.5,5.9,149,1015.04,-22.6,64,0.29,0.0,1046.52,90.0
2019-02-09 18:50,50.63045,-96.9807666666667,4.1,6.0,149,1014.89,-22.1,64,0.29,0.0,1046.29,90.0
2019-02-09 19:00,50.63045,-96.9807666666667,4.5,6.1,154,1014.75,-21.8,64,0.29,0.0,1046.10,270.0
2019-02-09 19:10,50.63045,-96.9807683333333,4.2,5.5,175,1014.63,-21.1,60,0.29,0.0,1045.90,270.0
2019-02-09 19:20,50.63045,-96.9807683333333,5.0,6.1,170,1014.47,-21.2,59,0.30,0.0,1045.73,270.0
2019-02-09 19:30,50.6304516666667,-96.9807666666667,4.2,5.5,173,1014.27,-21.1,59,0.30,0.0,1045.53,270.0
2019-02-09 19:40,50.630445,-96.98076,4.2,4.8,164,1014.16,-20.8,58,0.30,0.0,1045.36,270.0
2019-02-09 19:50,50.6304483333333,-96.980755,4.3,5.4,165,1014.08,-20.4,58,0.30,0.0,1045.18,270.0
2019-02-09 20:00,50.6304533333333,-96.9807616666667,3.1,4.5,164,1013.95,-19.9,57,0.30,0.0,1044.97,38.0
2019-02-09 20:10,50.630475,-96.9807633333333,3.4,5.2,150,1013.82,-19.7,57,0.30,0.0,1044.79,38.0
2019-02-09 20:20,50.6304533333333,-96.980765,5.4,6.9,131,1013.63,-20.1,61,0.30,0.0,1044.64,38.0
2019-02-09 20:30,50.6304583333333,-96.980765,6.1,7.1,135,1013.51,-20.8,62,0.30,0.0,1044.59,38.0
2019-02-09 20:40,50.6304616666667,-96.9807733333333,6.5,7.6,135,1013.45,-20.7,62,0.30,0.0,1044.50,38.0
2019-02-09 20:50,50.6304633333333,-96.9807533333333,6.8,7.7,137,1013.34,-20.8,63,0.30,0.0,1044.38,38.0
2019-02-09 21:00,50.6304583333333,-96.9807566666667,7.7,8.5,140,1013.24,-20.9,63,0.31,0.0,1044.23,38.0
2019-02-09 21:10,50.63046,-96.98076,7.1,8.5,144,1013.19,-21.3,64,0.31,0.0,1044.21,38.0
2019-02-09 21:20,50.6304583333333,-96.9807583333333,7.9,9.1,143,1013.18,-21.4,65,0.31,0.0,1044.20,38.0
2019-02-09 21:30,50.63045,-96.980755,7.6,8.8,147,1013.21,-21.4,64,0.31,0.0,1044.21,38.0
2019-02-09 21:40,50.630485,-96.98078,8.0,8.9,149,1013.21,-21.4,64,0.31,0.0,1044.19,38.0
2019-02-09 21:50,50.6304666666667,-96.9807633333333,6.8,8.0,148,1013.20,-21.3,64,0.31,0.0,1044.15,38.0
2019-02-09 22:00,50.6304633333333,-96.9807616666667,6.7,8.1,151,1013.11,-21.2,64,0.32,0.0,1044.03,14.5
2019-02-09 22:10,50.6304516666667,-96.980775,6.9,8.1,155,1012.98,-21.4,65,0.32,0.0,1043.93,14.5
2019-02-09 22:20,50.63046,-96.9807683333333,5.6,7.0,175,1012.91,-21.1,62,0.32,0.0,1043.88,14.5
2019-02-09 22:30,50.6304483333333,-96.9807766666667,5.9,6.7,177,1012.95,-21.0,58,0.32,0.0,1043.91,14.5
2019-02-09 22:40,50.63045,-96.980775,6.6,8.3,178,1012.87,-21.3,58,0.32,0.0,1043.86,14.5
2019-02-09 22:50,50.63045,-96.98077,6.9,8.1,183,1012.77,-21.7,59,0.32,0.0,1043.79,14.5
2019-02-09 23:00,50.63045,-96.9807683333333,7.9,9.2,185,1012.67,-22.0,59,0.32,0.0,1043.73,270.0
2019-02-09 23:10,50.63045,-96.9807683333333,7.8,9.1,184,1012.63,-22.4,59,0.33,0.0,1043.72,270.0
2019-02-09 23:20,50.630455,-96.9807716666667,7.1,8.2,186,1012.63,-22.8,60,0.33,0.0,1043.74,270.0
2019-02-09 23:30,50.63045,-96.9807716666667,8.1,9.5,188,1012.61,-23.0,60,0.33,0.0,1043.73,270.0
2019-02-09 23:40,50.63045,-96.9807683333333,7.6,9.7,191,1012.61,-23.3,61,0.33,0.0,1043.75,270.0
